[[{"header":{"parameterUnit":"m.s-1","parameterCategory":1,"la1":30.2992,"la2":30.254,"lo1":-89.0895,"lo2":-89.0443,"dy":0.0025,"dx":0.0025,"nx":19,"ny":19,"refTime":"2026-03-25T09:00:00:Z","depth":0,"parameterNumber":2,"parameterNumberName":"U-component_of_WINDS"},"data":[0,0,0,-0.6155,-0.6156,-0.6205,-0.6205,-0.6267,-0.6267,0,0,0,0,0,0,0,0,0,0,0,-0.6138,-0.6139,-0.6154,-0.6156,-0.6205,-0.6205,-0.6267,-0.6267,0,0,0,0,0,0,0,0,0,0,0,-0.6138,-0.6139,-0.6139,-0.6156,-0.6205,-0.6205,-0.6266,-0.623,0,0,0,0,0,0,0,0,0,0,-0.6182,-0.6166,-0.6139,-0.6139,-0.6156,-0.6205,-0.6205,-0.6228,-0.6232,-0.6244,0,-0.6253,0,-0.6261,-0.6271,-0.6271,0,0,0,-0.6157,-0.6163,-0.6177,-0.6139,-0.6157,-0.6205,-0.6183,-0.623,-0.6235,-0.6249,-0.6254,-0.6256,-0.6262,-0.6272,-0.6272,-0.6333,-0.6333,0,0,-0.6154,-0.6147,-0.6174,-0.618,-0.6172,-0.6181,-0.6184,-0.6233,-0.6238,-0.6254,-0.6258,-0.6263,-0.6272,-0.6272,-0.6333,-0.6333,0,0,0,-0.6146,-0.6145,-0.6158,-0.6177,-0.6186,-0.6183,-0.6186,-0.6236,-0.6241,-0.6258,-0.6264,-0.6272,-0.6273,-0.6333,-0.6333,-0.6336,0,0,0,-0.6144,-0.614,-0.6157,-0.6153,-0.6185,-0.6212,-0.6188,-0.6238,-0.6243,-0.6263,-0.6272,-0.6274,-0.6332,-0.6333,-0.6336,-0.6339,0,0,0,-0.6136,-0.6139,-0.6145,-0.6152,-0.6173,-0.6211,-0.6219,-0.6239,-0.6247,-0.6271,-0.6274,-0.6332,-0.6333,-0.6335,-0.6338,-0.6353,0,0,0,-0.6125,-0.6147,-0.6145,-0.6173,-0.6173,-0.6213,-0.6219,-0.6249,-0.6271,-0.6273,-0.6332,-0.6333,-0.6335,-0.6338,-0.6352,-0.6363,-0.6367,0,0,-0.6149,-0.615,-0.6167,-0.6166,-0.6205,-0.6206,-0.6246,-0.6273,-0.6283,-0.6316,-0.6318,-0.6336,-0.6338,-0.6353,-0.6394,-0.6397,0,0,0,-0.6172,-0.6184,-0.6196,-0.6216,-0.6238,-0.6257,-0.6279,-0.6289,-0.6318,-0.6298,-0.6346,-0.6347,-0.6356,-0.6362,-0.6364,-0.6372,-0.6335,-0.6335,-0.6335,-0.6194,-0.6206,-0.6235,-0.6252,-0.6272,-0.6296,-0.6313,-0.6331,-0.6336,-0.6348,-0.6357,-0.6381,-0.6387,-0.6389,-0.6397,-0.6365,-0.6365,-0.6365,-0.6365,-0.6231,-0.6249,-0.6257,-0.6288,-0.63,-0.6326,-0.6351,-0.6354,-0.638,-0.6374,-0.6383,-0.6374,-0.6392,-0.64,-0.6365,-0.6365,-0.6365,-0.6365,-0.6365,-0.6246,-0.6257,-0.6269,-0.6301,-0.6324,-0.6342,-0.6367,-0.6378,-0.6388,-0.6396,-0.6408,-0.6408,-0.6408,-0.6401,-0.6401,-0.6401,-0.6401,-0.6401,-0.6402,-0.6256,-0.627,-0.629,-0.6316,-0.6331,-0.6352,-0.6377,-0.6392,-0.6412,-0.6418,-0.6418,-0.6423,-0.6392,-0.6384,-0.6403,-0.6403,-0.6402,-0.6402,-0.6402,-0.6286,-0.6281,-0.6312,-0.6327,-0.6359,-0.6382,-0.6396,-0.6426,-0.6441,-0.6453,-0.6457,-0.6433,-0.6434,-0.6432,-0.6425,-0.6454,-0.6454,-0.6454,-0.6454,-0.6298,-0.6301,-0.6334,-0.6358,-0.6383,-0.6399,-0.6434,-0.6455,-0.6475,-0.6485,-0.6483,-0.6475,-0.6472,-0.6476,-0.6473,-0.6466,-0.6505,-0.6505,-0.6505,-0.6317,-0.6323,-0.635,-0.637,-0.6396,-0.6419,-0.6452,-0.648,-0.6502,-0.6507,-0.6493,-0.6491,-0.6478,-0.6474,-0.6477,-0.6472,-0.6461,0,0]},{"header":{"parameterUnit":"m.s-1","parameterCategory":1,"la1":30.2992,"la2":30.254,"lo1":-89.0895,"lo2":-89.0443,"dy":0.0025,"dx":0.0025,"nx":19,"ny":19,"refTime":"2026-03-25T09:00:00:Z","depth":0,"parameterNumber":3,"parameterNumberName":"V-component_of_WINDS"},"data":[0,0,0,-0.6535,-0.6535,-0.6514,-0.6514,-0.6479,-0.6479,0,0,0,0,0,0,0,0,0,0,0,-0.6536,-0.6536,-0.6535,-0.6535,-0.6514,-0.6514,-0.6479,-0.6479,0,0,0,0,0,0,0,0,0,0,0,-0.6536,-0.6536,-0.6535,-0.6534,-0.6514,-0.6514,-0.648,-0.6498,0,0,0,0,0,0,0,0,0,0,-0.652,-0.6515,-0.6536,-0.6535,-0.6534,-0.6514,-0.6514,-0.6499,-0.6497,-0.6485,0,-0.6473,0,-0.6475,-0.6476,-0.6476,0,0,0,-0.6539,-0.6517,-0.6516,-0.6535,-0.6534,-0.6514,-0.6524,-0.6498,-0.6496,-0.6482,-0.6472,-0.6471,-0.6475,-0.6476,-0.6476,-0.6391,-0.639,0,0,-0.654,-0.653,-0.6518,-0.6514,-0.6516,-0.6525,-0.6524,-0.6497,-0.6486,-0.6472,-0.6471,-0.6474,-0.6476,-0.6475,-0.6391,-0.6391,0,0,0,-0.654,-0.653,-0.653,-0.6515,-0.6512,-0.6524,-0.6523,-0.6487,-0.6488,-0.647,-0.6474,-0.6475,-0.6475,-0.6392,-0.6391,-0.635,0,0,0,-0.6541,-0.6531,-0.653,-0.6524,-0.6512,-0.6499,-0.6513,-0.6489,-0.6487,-0.6474,-0.6475,-0.6474,-0.6393,-0.6391,-0.6353,-0.6332,0,0,0,-0.6539,-0.653,-0.6525,-0.6524,-0.6514,-0.65,-0.6499,-0.6489,-0.6488,-0.6476,-0.6474,-0.6393,-0.6392,-0.6355,-0.6336,-0.6305,0,0,0,-0.6534,-0.6491,-0.6525,-0.6478,-0.6514,-0.6475,-0.65,-0.6471,-0.6456,-0.6475,-0.6392,-0.6391,-0.6356,-0.6339,-0.6308,-0.6277,-0.6263,0,0,-0.6474,-0.6483,-0.6456,-0.6486,-0.6437,-0.6479,-0.6425,-0.6421,-0.643,-0.6403,-0.6401,-0.6352,-0.6336,-0.6306,-0.6193,-0.6182,0,0,0,-0.6434,-0.6414,-0.6404,-0.6387,-0.6383,-0.6377,-0.6382,-0.6381,-0.6358,-0.6414,-0.6334,-0.6325,-0.6307,-0.6293,-0.6284,-0.6268,-0.6384,-0.6385,-0.6385,-0.6333,-0.6346,-0.6301,-0.6311,-0.6295,-0.63,-0.6288,-0.6287,-0.6306,-0.6287,-0.6278,-0.6208,-0.6191,-0.6184,-0.6168,-0.6264,-0.6264,-0.6264,-0.6264,-0.6245,-0.6218,-0.6242,-0.6207,-0.6221,-0.6192,-0.6195,-0.6209,-0.6184,-0.6216,-0.6201,-0.6234,-0.6172,-0.6158,-0.6261,-0.6262,-0.6262,-0.6262,-0.6262,-0.6179,-0.6168,-0.6166,-0.6143,-0.6124,-0.6136,-0.611,-0.6124,-0.6137,-0.6123,-0.6114,-0.6115,-0.6116,-0.6118,-0.6118,-0.6117,-0.6117,-0.6117,-0.6117,-0.6111,-0.611,-0.6086,-0.6076,-0.6067,-0.6056,-0.606,-0.6052,-0.6046,-0.6058,-0.6058,-0.6077,-0.6164,-0.6184,-0.6113,-0.6114,-0.6114,-0.6115,-0.6115,-0.6014,-0.6038,-0.6001,-0.5991,-0.598,-0.5959,-0.5977,-0.5957,-0.5953,-0.5939,-0.5962,-0.6024,-0.6035,-0.6042,-0.6059,-0.596,-0.596,-0.596,-0.596,-0.5957,-0.5964,-0.5928,-0.5911,-0.5897,-0.5909,-0.5866,-0.5868,-0.5875,-0.5872,-0.5889,-0.5913,-0.592,-0.5927,-0.5937,-0.5953,-0.5829,-0.5828,-0.5828,-0.5898,-0.5903,-0.5864,-0.5869,-0.5861,-0.5853,-0.5813,-0.5793,-0.5805,-0.5823,-0.587,-0.5875,-0.5915,-0.5927,-0.5945,-0.596,-0.599,0,0]}]]